Total_Precipitation_Accumulation
0.78 0.85 0.82 0.90 0.93 0.92 0.95 0.94 0.90 0.83 0.81 0.76 0.73 0.70 0.67 0.66 0.69 0.73 0.73 0.71 0.67 0.70 0.70 0.71 0.74 0.81 0.86 0.85 0.88 0.87 0.91 1.04 1.00 0.84 0.92 1.00 0.92 0.75 0.66 0.64 0.62 0.64 0.60
0.54 0.63 0.68 0.72 0.77 0.76 0.77 0.85 0.90 0.86 0.82 0.80 0.78 0.74 0.65 0.63 0.72 0.77 0.76 0.76 0.76 0.74 0.78 0.85 0.82 0.82 0.90 0.94 1.04 1.03 1.05 1.22 1.23 1.08 1.08 1.14 1.04 0.90 0.77 0.67 0.55 0.52 0.53
0.42 0.51 0.59 0.66 0.67 0.65 0.67 0.74 0.82 0.87 0.87 0.82 0.81 0.76 0.70 0.67 0.70 0.73 0.80 0.85 0.87 0.89 0.91 0.96 0.99 1.04 1.03 1.04 1.09 1.10 1.15 1.31 1.39 1.31 1.28 1.36 1.36 1.15 0.96 0.77 0.64 0.64 0.54
0.53 0.63 0.70 0.75 0.76 0.75 0.73 0.77 0.83 0.90 0.93 0.97 0.97 0.97 0.94 0.89 0.84 0.81 0.85 0.89 0.91 0.95 1.03 1.03 1.03 1.11 1.18 1.24 1.27 1.36 1.43 1.52 1.60 1.55 1.53 1.63 1.65 1.52 1.30 1.03 0.91 0.84 0.73
0.72 0.88 1.03 1.12 1.11 1.02 0.99 1.02 1.06 1.10 1.14 1.25 1.26 1.20 1.16 1.10 0.98 0.97 0.94 0.90 0.97 0.92 0.97 1.02 0.99 1.03 1.10 1.23 1.27 1.39 1.55 1.71 1.86 1.91 1.91 2.05 1.99 1.81 1.56 1.22 1.08 0.97 0.86
0.66 0.76 0.90 1.07 1.14 1.09 1.06 1.14 1.21 1.26 1.37 1.42 1.36 1.32 1.30 1.13 1.17 1.15 1.07 1.09 1.13 1.11 1.12 1.15 1.11 1.06 1.05 1.10 1.19 1.30 1.45 1.62 1.84 2.02 2.11 2.17 2.19 2.02 1.79 1.50 1.16 0.92 0.82
0.71 0.83 0.90 1.01 1.10 1.13 1.15 1.23 1.30 1.31 1.31 1.36 1.35 1.29 1.22 1.20 1.13 1.01 1.01 1.02 1.08 1.13 1.14 1.16 1.05 0.95 0.99 0.96 1.01 1.06 1.11 1.21 1.32 1.53 1.72 1.80 1.94 2.00 1.85 1.53 1.24 1.03 0.86
0.72 0.81 0.89 1.00 1.10 1.20 1.34 1.40 1.44 1.50 1.49 1.47 1.39 1.33 1.33 1.27 1.14 1.00 1.00 0.95 0.98 1.01 1.04 1.06 1.05 0.97 0.93 0.95 0.95 0.91 0.85 0.84 0.89 0.95 1.08 1.30 1.51 1.72 1.77 1.65 1.54 1.28 1.02
0.85 0.92 1.00 1.09 1.22 1.30 1.35 1.43 1.51 1.58 1.54 1.54 1.54 1.52 1.53 1.51 1.39 1.16 1.07 1.06 1.13 1.11 1.10 1.10 1.10 1.01 1.00 0.87 0.85 0.82 0.77 0.74 0.71 0.76 0.84 1.02 1.25 1.42 1.60 1.59 1.48 1.36 1.14
0.98 1.00 1.05 1.22 1.30 1.32 1.31 1.37 1.40 1.43 1.40 1.38 1.39 1.44 1.47 1.51 1.48 1.16 1.00 0.94 1.02 1.05 1.10 1.11 1.09 0.97 0.97 0.88 0.88 0.89 0.82 0.75 0.73 0.71 0.73 0.81 0.89 1.12 1.34 1.36 1.29 1.24 1.12
1.01 1.00 1.07 1.17 1.31 1.36 1.39 1.37 1.33 1.31 1.31 1.34 1.35 1.38 1.42 1.42 1.35 1.04 0.92 0.92 1.00 1.04 1.02 1.01 1.04 0.99 0.85 0.75 0.71 0.74 0.75 0.74 0.78 0.78 0.76 0.80 0.88 0.98 1.15 1.23 1.22 1.11 1.00
0.91 0.94 0.98 1.01 1.02 1.10 1.24 1.30 1.30 1.29 1.30 1.35 1.41 1.43 1.42 1.39 1.28 1.03 0.81 0.80 0.90 0.96 0.99 1.00 1.03 0.98 0.83 0.72 0.63 0.62 0.62 0.61 0.67 0.73 0.74 0.74 0.78 0.85 0.98 1.19 1.29 1.21 1.02
0.93 0.96 0.96 0.97 1.01 1.08 1.14 1.16 1.14 1.10 1.06 1.07 1.21 1.31 1.33 1.33 1.26 1.03 0.81 0.73 0.78 0.84 0.94 1.09 1.08 0.95 0.86 0.79 0.72 0.63 0.58 0.54 0.60 0.67 0.63 0.62 0.62 0.69 0.84 1.12 1.35 1.48 1.34
0.96 0.98 1.01 1.06 1.04 1.03 1.09 1.08 1.03 1.01 0.97 0.97 1.14 1.28 1.35 1.35 1.28 1.12 0.97 0.86 0.86 0.88 0.94 1.08 1.12 1.08 1.01 0.92 0.82 0.66 0.53 0.51 0.52 0.57 0.60 0.61 0.67 0.75 0.85 0.92 1.13 1.32 1.38
0.90 0.87 0.95 1.02 0.97 0.92 1.00 1.06 0.98 0.97 1.01 1.03 1.18 1.40 1.45 1.36 1.23 1.06 0.94 0.95 0.94 0.99 1.03 1.18 1.30 1.32 1.29 1.18 1.01 0.85 0.72 0.67 0.63 0.63 0.70 0.73 0.76 0.77 0.78 0.81 0.95 1.10 1.11
0.95 0.90 0.85 0.85 0.87 0.90 0.94 0.97 0.96 0.85 0.85 0.82 0.89 1.02 1.13 1.08 0.96 0.86 0.79 0.79 0.77 0.78 0.86 1.09 1.34 1.41 1.42 1.39 1.27 1.09 0.94 0.86 0.80 0.78 0.79 0.79 0.77 0.81 0.83 0.87 0.93 1.03 1.02
0.95 0.93 0.85 0.76 0.72 0.72 0.77 0.83 0.88 0.82 0.66 0.61 0.60 0.61 0.64 0.66 0.65 0.69 0.71 0.64 0.58 0.53 0.58 0.80 1.10 1.30 1.38 1.41 1.33 1.15 0.97 0.91 0.93 0.87 0.84 0.82 0.81 0.80 0.87 0.91 0.93 0.99 1.02
0.73 0.77 0.73 0.67 0.65 0.64 0.65 0.66 0.68 0.76 0.79 0.70 0.57 0.50 0.49 0.48 0.51 0.67 0.75 0.58 0.46 0.41 0.44 0.59 0.84 1.11 1.21 1.26 1.24 1.17 1.06 1.01 1.00 0.95 0.91 0.88 0.86 0.85 0.83 0.86 0.89 0.92 0.95
0.71 0.70 0.63 0.63 0.66 0.69 0.72 0.70 0.67 0.71 0.81 0.88 0.81 0.60 0.51 0.48 0.51 0.71 0.80 0.57 0.49 0.52 0.53 0.58 0.72 0.94 1.10 1.18 1.18 1.15 1.10 1.07 1.06 1.05 1.00 0.97 0.93 0.94 0.89 0.84 0.88 0.96 1.00
0.66 0.72 0.66 0.62 0.63 0.68 0.71 0.69 0.72 0.80 0.89 0.99 0.98 0.73 0.55 0.52 0.56 0.81 0.92 0.76 0.69 0.69 0.67 0.67 0.73 0.88 1.03 1.14 1.16 1.13 1.14 1.11 1.11 1.09 1.06 1.02 0.97 0.97 0.97 0.96 0.97 1.01 0.97
0.57 0.58 0.58 0.54 0.59 0.64 0.66 0.67 0.70 0.80 0.91 0.98 0.92 0.69 0.56 0.53 0.64 0.87 1.05 0.95 0.86 0.84 0.81 0.77 0.79 0.89 0.98 1.07 1.08 1.05 1.06 1.11 1.10 1.09 1.06 1.06 1.03 1.00 1.02 1.04 1.03 1.06 1.06
0.53 0.52 0.51 0.51 0.52 0.54 0.56 0.64 0.72 0.84 0.94 0.99 0.87 0.69 0.64 0.65 0.76 0.92 0.98 0.94 0.89 0.86 0.83 0.83 0.87 0.96 1.00 1.02 1.03 1.05 1.07 1.10 1.09 1.10 1.13 1.13 1.12 1.09 1.11 1.10 1.07 1.09 1.12
0.44 0.45 0.48 0.51 0.53 0.50 0.51 0.58 0.62 0.71 0.84 0.91 0.81 0.75 0.75 0.82 0.85 0.91 0.97 0.98 0.94 0.90 0.85 0.88 0.91 0.91 0.91 0.91 0.88 0.93 0.99 0.99 0.98 1.01 1.08 1.12 1.14 1.12 1.10 1.06 1.03 1.05 1.09
0.31 0.31 0.32 0.34 0.36 0.38 0.42 0.46 0.49 0.54 0.66 0.74 0.71 0.76 0.81 0.84 0.83 0.85 0.90 0.90 0.90 0.90 0.88 0.83 0.81 0.78 0.78 0.79 0.79 0.80 0.80 0.83 0.84 0.88 0.93 1.01 1.05 1.09 1.08 1.03 1.03 1.04 1.06
0.27 0.28 0.28 0.30 0.30 0.32 0.36 0.41 0.48 0.54 0.60 0.64 0.70 0.74 0.79 0.79 0.80 0.84 0.83 0.81 0.82 0.81 0.76 0.73 0.75 0.75 0.75 0.71 0.66 0.63 0.64 0.63 0.66 0.74 0.80 0.89 0.94 0.99 1.00 0.98 1.01 1.05 1.06
0.25 0.31 0.33 0.36 0.37 0.37 0.40 0.44 0.50 0.53 0.56 0.60 0.66 0.73 0.77 0.77 0.78 0.79 0.76 0.73 0.75 0.72 0.68 0.66 0.65 0.67 0.66 0.63 0.57 0.54 0.50 0.47 0.50 0.58 0.62 0.72 0.83 0.89 0.93 0.96 0.95 0.99 1.00